Time,TemperatureF,DewpointF,PressureIn,WindDirection,WindDirectionDegrees,WindSpeedMPH,WindSpeedGustMPH,Humidity,HourlyPrecipIn,Conditions,Clouds,dailyrainin,SoftwareType,DateUTC
2013-10-12 00:14:00,52.0,43.0,30.20,ESE,120,0.0,0.0,70,0.00,,,0.00,,2013-10-12 04:14:00,
2013-10-12 00:24:00,51.0,42.0,30.20,ESE,120,0.0,0.0,72,0.00,,,0.00,,2013-10-12 04:24:00,
2013-10-12 00:44:00,51.0,43.0,30.20,ESE,120,0.0,0.0,74,0.00,,,0.00,,2013-10-12 04:44:00,
2013-10-12 00:54:00,51.0,43.0,30.20,ESE,120,0.0,0.0,75,0.00,,,0.00,,2013-10-12 04:54:00,
2013-10-12 01:13:00,51.0,44.0,30.20,ESE,120,0.0,0.0,76,0.00,,,0.00,,2013-10-12 05:13:00,
2013-10-12 01:23:00,51.0,44.0,30.20,ESE,120,0.0,0.0,76,0.00,,,0.00,,2013-10-12 05:23:00,
2013-10-12 01:43:00,50.0,44.0,30.21,ESE,120,0.0,0.0,79,0.00,,,0.00,,2013-10-12 05:43:00,
2013-10-12 01:52:00,50.0,44.0,30.21,ESE,120,0.0,0.0,80,0.00,,,0.00,,2013-10-12 05:52:00,
2013-10-12 02:12:00,50.0,45.0,30.20,ESE,120,0.0,0.0,82,0.00,,,0.00,,2013-10-12 06:12:00,
2013-10-12 02:22:00,50.0,45.0,30.21,ESE,120,0.0,0.0,83,0.00,,,0.00,,2013-10-12 06:22:00,
2013-10-12 02:42:00,50.0,45.0,30.21,ESE,120,0.0,0.0,84,0.00,,,0.00,,2013-10-12 06:42:00,
2013-10-12 02:52:00,50.0,45.0,30.21,ESE,120,0.0,0.0,83,0.00,,,0.00,,2013-10-12 06:52:00,
2013-10-12 03:12:00,50.0,45.0,30.21,ESE,120,0.0,0.0,83,0.00,,,0.00,,2013-10-12 07:12:00,
2013-10-12 03:22:00,51.0,46.0,30.21,ESE,120,0.0,0.0,83,0.00,,,0.00,,2013-10-12 07:22:00,
2013-10-12 03:42:00,51.0,46.0,30.21,ESE,120,0.0,0.0,84,0.00,,,0.00,,2013-10-12 07:42:00,
2013-10-12 03:52:00,51.0,46.0,30.21,ESE,120,0.0,0.0,84,0.00,,,0.00,,2013-10-12 07:52:00,
2013-10-12 04:12:00,50.0,46.0,30.21,ESE,120,0.0,0.0,85,0.00,,,0.00,,2013-10-12 08:12:00,
2013-10-12 04:22:00,50.0,46.0,30.21,ESE,120,0.0,0.0,86,0.00,,,0.00,,2013-10-12 08:22:00,
2013-10-12 04:42:00,50.0,46.0,30.22,ESE,120,0.0,0.0,86,0.00,,,0.00,,2013-10-12 08:42:00,
2013-10-12 04:52:00,50.0,46.0,30.22,ESE,120,0.0,0.0,86,0.00,,,0.00,,2013-10-12 08:52:00,
2013-10-12 05:22:00,50.0,46.0,30.23,ESE,120,0.0,0.0,87,0.00,,,0.00,,2013-10-12 09:22:00,
2013-10-12 05:54:00,50.0,46.0,30.24,West,280,0.0,0.0,87,0.00,,,0.00,,2013-10-12 09:54:00,
2013-10-12 06:12:00,49.0,46.0,30.24,SSE,160,0.0,0.0,88,0.00,,,0.00,,2013-10-12 10:12:00,
2013-10-12 06:23:00,49.0,46.0,30.25,SSE,149,0.0,0.0,88,0.00,,,0.00,,2013-10-12 10:23:00,
2013-10-12 06:42:00,49.0,46.0,30.25,ESE,118,0.0,0.0,89,0.00,,,0.00,,2013-10-12 10:42:00,
2013-10-12 06:52:00,49.0,46.0,30.26,ESE,118,0.0,0.0,90,0.00,,,0.00,,2013-10-12 10:52:00,
2013-10-12 07:12:00,49.0,46.0,30.26,ESE,118,0.0,0.0,90,0.00,,,0.00,,2013-10-12 11:12:00,
2013-10-12 07:22:00,49.0,46.0,30.27,ESE,119,0.0,0.0,90,0.00,,,0.00,,2013-10-12 11:22:00,
2013-10-12 07:52:00,48.0,46.0,30.28,South,170,0.0,0.0,92,0.00,,,0.00,,2013-10-12 11:52:00,
2013-10-12 08:11:00,48.0,46.0,30.28,SSW,204,0.0,0.0,93,0.00,,,0.00,,2013-10-12 12:11:00,
2013-10-12 08:22:00,49.0,47.0,30.29,West,277,0.0,0.0,93,0.00,,,0.00,,2013-10-12 12:22:00,
2013-10-12 08:52:00,48.0,46.0,30.30,SW,228,0.0,0.0,94,0.00,,,0.00,,2013-10-12 12:52:00,
2013-10-12 09:11:00,50.0,48.0,30.31,WNW,299,0.0,1.0,94,0.00,,,0.00,,2013-10-12 13:11:00,
2013-10-12 09:22:00,50.0,48.0,30.31,SW,224,1.0,4.0,93,0.00,,,0.00,,2013-10-12 13:22:00,
2013-10-12 09:42:00,50.0,48.0,30.32,SSE,159,1.0,4.0,93,0.00,,,0.00,,2013-10-12 13:42:00,
2013-10-12 09:52:00,50.0,48.0,30.32,WSW,256,1.0,5.0,94,0.00,,,0.00,,2013-10-12 13:52:00,
2013-10-12 10:12:00,50.0,49.0,30.32,WNW,293,0.0,4.0,95,0.00,,,0.00,,2013-10-12 14:12:00,
2013-10-12 10:21:00,50.0,49.0,30.33,North,1,0.0,5.0,95,0.00,,,0.00,,2013-10-12 14:21:00,
2013-10-12 10:42:00,50.0,49.0,30.33,West,280,1.0,4.0,95,0.00,,,0.00,,2013-10-12 14:42:00,
2013-10-12 10:52:00,50.0,49.0,30.33,WNW,298,0.0,3.0,95,0.00,,,0.00,,2013-10-12 14:52:00,
2013-10-12 11:11:00,50.0,49.0,30.34,NNW,342,1.0,5.0,96,0.00,,,0.00,,2013-10-12 15:11:00,
2013-10-12 11:22:00,50.0,49.0,30.34,SW,215,1.0,4.0,96,0.00,,,0.00,,2013-10-12 15:22:00,
2013-10-12 11:43:00,50.0,49.0,30.34,NW,316,1.0,117.0,96,0.00,,,0.00,,2013-10-12 15:43:00,
2013-10-12 11:53:00,50.0,49.0,30.35,NW,312,1.0,4.0,96,0.00,,,0.00,,2013-10-12 15:53:00,
2013-10-12 12:13:00,50.0,49.0,30.35,WNW,292,1.0,4.0,96,0.00,,,0.00,,2013-10-12 16:13:00,
2013-10-12 12:23:00,50.0,49.0,30.35,SW,224,1.0,4.0,96,0.00,,,0.00,,2013-10-12 16:23:00,
2013-10-12 12:43:00,50.0,49.0,30.35,NNW,328,1.0,5.0,97,0.00,,,0.00,,2013-10-12 16:43:00,
2013-10-12 12:53:00,50.0,49.0,30.35,WNW,293,0.0,4.0,97,0.00,,,0.00,,2013-10-12 16:53:00,
2013-10-12 13:03:00,50.0,49.0,30.35,WNW,293,0.0,4.0,97,0.00,,,0.00,,2013-10-12 17:03:00,
2013-10-12 13:13:00,50.0,49.0,30.35,WNW,293,0.0,4.0,97,0.00,,,0.00,,2013-10-12 17:13:00,
2013-10-12 13:23:00,50.0,49.0,30.35,SSW,199,0.0,6.0,97,0.00,,,0.00,,2013-10-12 17:23:00,
2013-10-12 13:42:00,50.0,49.0,30.35,North,350,1.0,92.0,97,0.00,,,0.00,,2013-10-12 17:42:00,
2013-10-12 13:53:00,50.0,49.0,30.35,North,356,0.0,209.0,97,0.00,,,0.00,,2013-10-12 17:53:00,
2013-10-12 14:12:00,50.0,49.0,30.35,NW,319,0.0,5.0,97,0.00,,,0.00,,2013-10-12 18:12:00,
2013-10-12 14:22:00,51.0,50.0,30.34,NW,316,0.0,4.0,97,0.00,,,0.00,,2013-10-12 18:22:00,
2013-10-12 14:42:00,50.0,49.0,30.35,NW,318,1.0,4.0,97,0.00,,,0.00,,2013-10-12 18:42:00,
2013-10-12 14:52:00,50.0,49.0,30.35,SW,236,0.0,3.0,97,0.00,,,0.00,,2013-10-12 18:52:00,
2013-10-12 15:11:00,50.0,49.0,30.35,West,274,1.0,4.0,97,0.00,,,0.00,,2013-10-12 19:11:00,
2013-10-12 15:22:00,50.0,49.0,30.35,North,11,0.0,4.0,97,0.00,,,0.00,,2013-10-12 19:22:00,
2013-10-12 15:42:00,50.0,49.0,30.35,NW,316,0.0,4.0,97,0.00,,,0.00,,2013-10-12 19:42:00,
2013-10-12 15:52:00,50.0,49.0,30.35,West,276,0.0,45.0,98,0.00,,,0.00,,2013-10-12 19:52:00,
2013-10-12 16:12:00,50.0,49.0,30.36,WNW,283,0.0,5.0,98,0.00,,,0.00,,2013-10-12 20:12:00,
2013-10-12 16:22:00,50.0,49.0,30.35,NW,308,0.0,4.0,98,0.00,,,0.00,,2013-10-12 20:22:00,
2013-10-12 16:42:00,50.0,49.0,30.36,West,271,0.0,4.0,98,0.00,,,0.00,,2013-10-12 20:42:00,
2013-10-12 16:52:00,50.0,49.0,30.36,West,277,2.0,96.0,98,0.00,,,0.00,,2013-10-12 20:52:00,
2013-10-12 17:11:00,50.0,49.0,30.36,West,280,0.0,4.0,98,0.00,,,0.00,,2013-10-12 21:11:00,
2013-10-12 17:22:00,49.0,48.0,30.36,SW,224,2.0,4.0,98,0.00,,,0.00,,2013-10-12 21:22:00,
2013-10-12 17:43:00,49.0,48.0,30.36,WNW,302,1.0,4.0,98,0.00,,,0.00,,2013-10-12 21:43:00,
2013-10-12 17:54:00,49.0,48.0,30.36,WNW,285,1.0,3.0,98,0.01,,,0.01,,2013-10-12 21:54:00,
2013-10-12 18:13:00,49.0,48.0,30.37,NW,307,0.0,5.0,98,0.01,,,0.01,,2013-10-12 22:13:00,
2013-10-12 18:24:00,49.0,48.0,30.37,WNW,288,0.0,3.0,98,0.01,,,0.01,,2013-10-12 22:24:00,
2013-10-12 18:54:00,48.0,47.0,30.37,NNW,342,1.0,5.0,98,0.00,,,0.01,,2013-10-12 22:54:00,
2013-10-12 19:12:00,47.0,46.0,30.38,West,277,0.0,3.0,98,0.00,,,0.01,,2013-10-12 23:12:00,
2013-10-12 19:22:00,47.0,46.0,30.38,NW,315,0.0,3.0,98,0.00,,,0.01,,2013-10-12 23:22:00,
2013-10-12 19:42:00,47.0,46.0,30.39,West,269,0.0,2.0,98,0.00,,,0.01,,2013-10-12 23:42:00,
2013-10-12 19:52:00,47.0,46.0,30.39,WSW,253,0.0,3.0,98,0.00,,,0.01,,2013-10-12 23:52:00,
2013-10-12 20:12:00,47.0,46.0,30.39,West,259,0.0,3.0,98,0.00,,,0.01,,2013-10-13 00:12:00,
2013-10-12 20:22:00,47.0,46.0,30.39,West,278,0.0,2.0,98,0.00,,,0.01,,2013-10-13 00:22:00,
2013-10-12 20:42:00,47.0,46.0,30.39,WNW,285,0.0,2.0,98,0.01,,,0.02,,2013-10-13 00:42:00,
2013-10-12 20:52:00,47.0,46.0,30.39,South,169,0.0,3.0,98,0.01,,,0.02,,2013-10-13 00:52:00,
2013-10-12 21:12:00,47.0,46.0,30.40,WNW,288,0.0,3.0,98,0.01,,,0.02,,2013-10-13 01:12:00,
2013-10-12 21:22:00,47.0,46.0,30.40,WSW,250,0.0,6.0,98,0.01,,,0.02,,2013-10-13 01:22:00,
2013-10-12 21:42:00,47.0,46.0,30.40,NW,321,0.0,4.0,98,0.00,,,0.02,,2013-10-13 01:42:00,
2013-10-12 21:52:00,47.0,46.0,30.40,NNW,345,0.0,3.0,98,0.00,,,0.02,,2013-10-13 01:52:00,
2013-10-12 22:12:00,47.0,46.0,30.40,WNW,291,0.0,3.0,98,0.00,,,0.02,,2013-10-13 02:12:00,
2013-10-12 22:22:00,47.0,46.0,30.40,NW,314,0.0,2.0,98,0.00,,,0.02,,2013-10-13 02:22:00,
2013-10-12 22:42:00,47.0,46.0,30.40,NW,312,0.0,3.0,98,0.00,,,0.02,,2013-10-13 02:42:00,
2013-10-12 22:52:00,47.0,47.0,30.41,West,281,0.0,177.0,99,0.01,,,0.03,,2013-10-13 02:52:00,
2013-10-12 23:12:00,47.0,46.0,30.41,NW,308,0.0,3.0,98,0.01,,,0.03,,2013-10-13 03:12:00,
2013-10-12 23:23:00,46.0,45.0,30.41,WSW,245,0.0,2.0,98,0.01,,,0.03,,2013-10-13 03:23:00,
2013-10-12 23:45:00,46.0,45.0,30.41,South,184,0.0,3.0,98,0.01,,,0.03,,2013-10-13 03:45:00,
2013-10-12 23:54:00,46.0,46.0,30.41,WNW,290,0.0,73.0,99,0.00,,,0.03,,2013-10-13 03:54:00,